Location: Cluj-Napoca
(46.7712°N, 23.6236°E)
Time: 18:33:52
(UTC+03:00)

ISS - Pass Details

Date: 24 May 2020
Orbit: 417 x 420 km, 51.6° (Epoch: 26 May)

Event Time Altitude Azimuth Distance (km) Brightness Sun altitude
Rises 00:57:06 0° 295° (WNW) 2,369 0.5 -22.2°
Reaches altitude 10° 00:59:13 10° 293° (WNW) 1,503 -0.6 -22.2°
Enters shadow 01:00:59 28° 286° (WNW) 816 -2.2 -22.3°
